Location: Malvern Link
(52.1333°N, 2.3000°W)
Time: 19:33:35
(UTC+00:00)

AO-92 - Pass Details

Date: 11 July 2022
Orbit: 470 x 481 km, 97.4° (Epoch: 07 August)

Event Time Altitude Azimuth Distance (km) Brightness Sun altitude
Exits shadow 23:04:38 10° 221° (SW) 1,689 ? -14.3°
Reaches altitude 10° 23:04:44 10° 222° (SW) 1,661 ? -14.3°
Maximum altitude 23:07:18 19° 268° (W) 1,229 ? -14.4°
Drops below altitude 10° 23:09:54 10° 315° (NW) 1,675 ? -14.5°
Sets 23:12:28 0° 334° (NNW) 2,563 ? -14.6°
